RH
33 42 45 40 37 30 32 34 37 32 26 27 30 33 46 59 77 74 80 80 81 90 90 92 99 90 84 100 100 99 97 100 100 94 90 95 93 78 64 52 58 61 62 54
38 47 32 31 34 34 35 38 38 32 27 28 30 28 40 62 62 62 66 76 77 88 89 88 92 95 85 87 98 100 97 91 99 95 83 88 90 80 67 61 63 63 52 57
39 38 32 33 35 36 37 38 36 35 30 28 28 31 46 48 56 51 55 61 70 77 75 80 66 77 84 83 90 97 98 93 93 93 88 94 86 75 81 73 68 65 59 61
39 29 34 37 37 34 38 29 31 34 36 43 28 47 35 49 58 58 56 58 62 67 70 73 60 46 53 71 84 93 99 92 88 79 78 82 74 80 67 66 60 54 52 52
39 37 35 38 37 32 35 28 34 35 40 37 36 45 40 41 48 49 47 48 48 53 62 64 62 50 39 60 69 79 89 95 92 82 69 66 70 62 52 53 51 48 49 44
32 28 34 33 29 31 28 33 33 39 43 54 40 45 47 43 39 35 34 40 44 46 58 59 64 56 41 53 60 61 69 72 80 74 68 67 66 57 52 46 44 46 56 47
32 31 26 26 37 33 32 35 54 54 61 62 42 56 48 33 34 31 34 38 36 40 53 59 68 63 48 50 52 50 54 64 65 70 61 55 51 51 45 43 48 51 50 45
44 49 29 26 30 33 39 40 63 55 63 55 55 64 45 33 30 27 24 24 26 42 47 50 52 64 56 46 49 52 55 57 58 56 54 50 46 47 51 54 52 50 45 39
48 44 26 24 24 25 34 45 32 69 80 83 62 50 39 31 28 32 32 37 42 48 44 45 48 51 61 55 49 45 49 53 56 54 53 56 60 64 65 62 54 38 37 48
38 42 28 25 23 24 28 36 49 65 79 77 62 65 53 38 31 25 35 44 42 47 50 48 50 51 54 55 54 53 50 49 49 55 59 62 64 63 66 64 55 49 57 64
35 42 39 28 32 35 36 40 50 55 64 67 76 62 49 43 34 25 32 34 37 45 45 44 46 48 50 54 56 56 57 57 58 62 69 75 76 72 65 62 58 63 70 81
36 48 50 43 29 26 28 35 51 68 72 72 75 66 35 37 34 24 22 31 33 29 29 34 40 44 51 52 59 52 52 58 64 80 75 67 60 54 59 63 65 65 67 88
44 54 58 48 35 33 36 35 34 51 66 80 82 69 31 34 33 29 25 22 32 29 32 34 44 42 39 42 47 50 58 58 69 77 64 62 61 63 61 68 68 70 78 94
62 52 46 50 42 38 40 38 35 41 67 67 64 46 36 34 33 30 26 21 25 30 27 29 32 31 34 35 38 43 52 58 63 64 72 68 67 67 67 71 75 72 70 79
52 52 48 38 32 42 43 42 41 44 39 45 44 49 38 35 34 30 22 19 18 25 28 28 28 26 26 28 30 36 42 51 59 64 71 75 77 74 79 83 88 87 92 82
68 57 51 46 40 37 42 42 47 46 44 40 39 47 37 30 26 30 25 22 20 18 22 28 32 25 24 22 24 32 40 50 60 65 71 76 84 89 82 86 99 100 100 100
86 74 67 66 52 58 71 56 41 47 49 46 46 42 33 34 32 31 23 22 21 17 17 21 26 21 23 24 24 28 36 51 66 71 74 78 86 83 81 81 89 99 100 100
93 81 74 77 69 92 56 46 40 45 45 42 38 31 28 29 23 22 21 19 18 19 16 17 20 23 24 32 35 38 44 56 71 80 87 92 98 93 96 97 99 100 100 98
78 87 98 93 78 58 52 48 46 55 53 43 41 35 28 21 23 20 15 14 14 14 15 16 18 26 28 33 42 51 56 64 74 82 98 100 100 97 88 95 100 100 100 100
80 81 90 100 84 86 56 38 32 38 68 40 33 34 33 31 41 35 15 14 14 15 18 18 23 27 28 35 44 56 67 75 84 95 98 99 99 100 100 100 100 100 100 100
92 95 96 99 99 75 53 43 36 70 66 42 33 27 32 38 35 18 16 17 18 18 23 31 29 30 35 44 52 67 79 89 99 99 100 97 93 100 100 96 97 99 99 100
75 88 93 93 93 86 49 48 49 53 42 43 42 32 32 30 28 22 20 20 20 27 30 32 33 38 48 60 74 85 90 95 100 100 98 97 97 98 99 99 100 100 100 100
78 69 73 69 75 52 52 50 49 45 47 42 42 41 44 40 36 32 34 29 35 31 28 31 45 56 71 83 87 86 87 88 98 98 100 100 100 100 100 100 100 100 100 100
50 62 71 72 57 65 47 50 48 43 44 40 37 36 35 36 36 36 39 50 37 41 41 50 60 67 77 91 88 87 84 97 100 100 100 98 99 100 100 100 100 100 100 99
52 56 66 67 63 59 53 46 36 33 35 37 38 33 33 35 38 39 43 46 54 58 66 65 67 72 80 92 94 93 90 92 96 96 98 98 98 99 100 100 100 100 100 99
72 76 76 55 44 53 42 29 27 28 46 44 45 41 38 38 36 40 49 52 60 66 71 75 82 84 87 92 94 94 92 90 88 93 99 98 98 100 99 96 98 95 92 91
Wind_Speed
7 4 16 15 9 3 4 3 5 8 15 3 10 6 10 8 14 15 19 20 21 22 18 15 12 13 16 18 20 23 24 22 33 41 42 38 37 34 35 34 30 29 26 22
3 12 14 6 8 9 6 5 10 11 18 4 9 9 6 7 11 20 22 24 24 23 21 19 16 18 19 20 24 29 25 26 32 39 43 38 38 33 34 33 30 27 24 24
14 7 10 15 7 8 8 10 8 11 7 5 5 5 4 5 8 18 22 22 26 28 24 23 20 19 19 24 25 28 24 25 30 40 41 38 36 34 32 30 28 27 24 21
8 11 7 6 10 11 11 11 13 9 3 5 3 5 4 6 10 7 17 22 26 29 26 24 21 19 20 23 25 26 25 26 31 43 43 40 42 36 36 30 26 24 24 24
8 9 18 17 14 9 12 7 9 9 6 3 1 1 7 2 6 11 17 27 32 33 31 28 26 21 21 23 26 27 27 30 33 42 44 42 41 38 37 34 30 27 29 31
8 5 9 11 19 13 6 4 4 1 3 3 5 5 5 6 9 9 12 29 32 33 34 28 27 25 25 25 27 29 32 34 36 46 47 46 44 41 39 37 36 35 33 34
4 11 3 4 7 7 5 3 3 2 1 5 3 3 8 8 8 9 10 24 34 33 34 32 32 33 31 32 33 34 35 39 40 47 49 47 48 43 43 41 37 37 37 37
12 5 15 8 16 6 8 9 5 5 4 4 0 5 6 7 8 20 27 27 34 34 36 36 35 37 36 35 37 39 40 43 44 47 47 45 48 47 45 43 41 39 38 38
6 7 5 9 7 17 5 5 10 6 3 2 4 7 8 8 8 6 15 19 25 34 38 40 38 38 39 39 41 44 43 42 44 46 47 48 47 46 45 43 40 38 38 39
3 3 8 4 9 11 10 8 4 1 5 4 3 5 6 8 8 6 6 15 30 34 37 40 40 41 42 42 41 42 44 44 44 45 46 46 45 44 43 42 40 40 40 43
9 2 6 6 6 8 4 4 2 4 4 6 1 6 7 10 9 8 8 22 30 33 37 40 42 42 42 43 43 44 45 45 46 47 45 44 42 42 42 42 44 43 44 47
9 6 10 10 3 3 5 6 6 5 3 1 5 7 4 8 6 3 9 20 27 28 31 36 41 43 42 42 43 45 46 48 48 44 40 34 20 32 36 46 45 39 44 41
6 6 1 5 5 5 5 5 4 4 3 8 6 6 2 5 4 9 9 16 25 28 28 31 37 42 43 43 44 45 46 48 47 45 43 42 43 42 43 46 45 39 39 35
9 5 15 17 3 5 4 1 1 6 6 5 7 9 6 11 6 8 14 18 19 25 30 33 35 32 33 35 37 42 45 45 46 47 45 45 42 45 45 44 41 41 30 36
4 9 5 12 13 5 3 3 1 5 13 13 11 16 12 10 10 9 19 20 23 26 26 30 32 29 26 25 26 29 35 38 40 40 41 42 41 44 41 38 36 38 43 41
7 5 3 8 10 12 16 10 7 5 9 5 4 9 7 16 18 9 19 17 21 31 29 30 32 28 27 24 23 26 29 32 34 35 37 38 36 36 34 32 31 33 38 42
4 5 3 4 6 4 8 9 17 6 6 6 5 7 6 8 10 13 24 21 23 29 34 35 32 31 30 26 25 26 27 30 33 34 35 36 40 32 27 23 21 20 27 27
6 3 0 2 4 5 4 10 18 14 15 14 7 8 8 12 28 30 24 24 23 26 31 32 39 37 32 29 25 24 23 25 28 30 34 36 33 23 18 18 19 20 20 21
10 3 1 3 4 4 1 4 5 7 14 10 11 12 7 19 10 11 18 19 23 23 32 31 39 36 34 30 25 22 21 22 22 21 20 19 18 19 20 23 22 22 22 23
7 5 5 3 4 5 5 13 10 1 5 5 5 6 2 4 2 6 16 16 21 25 30 32 31 29 27 26 23 22 20 20 18 15 15 15 17 21 22 21 20 20 19 20
4 2 6 4 4 7 8 5 11 4 6 12 14 13 11 2 14 13 13 18 20 26 30 25 22 21 20 21 22 21 19 18 16 18 18 17 18 18 18 19 19 20 23 22
4 5 3 3 3 6 5 0 5 4 7 6 7 9 18 26 28 22 16 20 19 23 28 23 20 19 18 19 19 18 17 16 16 15 15 15 15 15 16 17 19 20 20 21
3 6 4 6 5 5 6 2 7 6 2 1 7 14 13 12 14 20 19 21 22 25 23 22 19 18 17 18 16 15 15 14 13 14 14 14 15 15 14 16 21 21 20 18
4 2 2 3 5 9 13 8 9 6 7 11 10 11 17 18 15 12 15 17 25 23 21 19 17 16 17 16 14 10 10 11 15 17 17 15 14 15 16 18 17 16 16 16
5 1 3 4 7 7 11 17 14 12 15 12 7 5 10 14 14 11 9 12 15 15 16 17 17 18 17 15 13 12 11 13 14 14 15 13 12 14 16 16 15 16 16 13
3 6 2 7 14 9 14 22 24 20 13 9 8 5 3 6 8 12 7 9 13 14 15 16 18 18 18 17 16 15 15 14 12 15 17 16 18 18 18 19 19 17 13 13
Wind_Direction
190 168 229 208 210 161 152 250 277 269 279 318 284 253 253 208 218 236 224 219 214 208 209 210 216 202 189 206 206 199 185 189 189 183 184 185 189 188 190 191 193 195 196 193
183 222 225 180 196 214 216 238 264 291 263 169 269 263 261 194 226 225 219 225 224 214 205 205 213 201 189 196 203 201 190 194 194 191 188 190 190 189 192 193 200 202 200 205
202 187 198 201 186 205 216 213 244 230 322 263 238 288 276 243 259 257 239 238 230 223 214 204 208 206 198 198 200 201 206 196 197 190 191 192 192 194 195 200 204 205 213 218
230 231 240 178 213 202 237 212 236 260 266 255 140 265 276 236 237 247 249 228 231 228 223 212 207 211 203 200 200 206 204 203 196 192 190 194 196 200 201 203 207 214 222 230
218 212 212 226 229 173 237 191 206 239 228 195 256 116 265 165 255 239 244 237 233 234 223 213 210 216 205 196 197 198 202 204 202 196 195 199 201 206 207 212 215 224 231 234
210 191 180 210 229 189 237 237 267 152 154 213 225 178 243 217 216 241 235 241 231 224 225 222 217 213 207 199 196 196 194 193 193 192 196 200 202 207 210 214 222 225 236 237
221 234 212 181 222 196 158 146 289 280 230 219 194 209 244 249 229 218 224 222 229 225 221 220 217 211 210 203 198 197 194 193 193 195 201 204 207 211 219 219 222 230 235 238
208 244 212 189 207 183 184 171 180 212 198 246 285 240 249 234 258 245 234 231 223 218 223 223 225 219 214 207 203 202 200 199 199 200 202 207 210 215 219 223 227 234 240 245
182 241 243 203 174 195 210 174 203 118 37 79 239 285 300 289 285 220 208 203 213 219 220 225 224 226 221 215 211 209 207 207 207 208 210 214 216 220 225 229 235 241 248 253
273 274 218 209 183 225 212 163 125 349 156 219 266 273 239 286 282 188 183 194 213 219 221 226 226 228 228 227 222 217 217 218 217 217 219 222 225 231 236 241 245 247 252 256
208 101 295 199 203 176 177 185 96 128 143 170 190 258 226 238 228 224 198 207 212 217 224 227 229 231 233 232 230 229 226 227 227 225 227 230 236 241 243 246 250 252 257 263
217 181 235 241 251 203 189 189 157 151 188 188 151 261 233 250 240 234 222 207 209 213 223 228 229 231 233 235 235 235 235 234 231 227 229 240 240 244 250 249 248 254 261 255
184 228 158 309 260 237 206 179 158 108 74 187 156 260 208 297 280 266 257 216 212 209 218 226 229 231 237 241 241 243 241 239 234 230 231 230 232 237 239 244 248 242 259 246
270 200 207 225 248 154 192 89 326 198 204 183 203 242 266 274 242 268 250 220 214 207 205 212 221 227 234 239 244 246 246 246 242 240 239 241 241 246 248 248 250 245 250 239
346 228 232 226 217 128 280 269 283 261 240 211 212 226 226 231 244 235 258 227 219 219 201 200 203 206 214 223 234 241 245 246 246 246 239 241 241 238 244 246 245 250 244 245
322 292 199 236 205 198 216 237 244 252 272 236 249 227 223 229 244 234 249 235 224 231 220 204 203 209 212 215 220 228 234 238 239 240 239 241 238 236 244 240 246 249 249 250
298 314 51 243 175 85 282 223 247 239 276 288 257 218 252 253 236 239 253 246 232 233 229 224 215 219 223 221 223 226 229 230 231 231 236 235 234 238 239 244 248 234 232 232
235 279 83 238 101 220 237 207 223 224 245 238 244 266 250 238 249 247 251 257 262 250 238 227 220 221 223 222 221 224 225 225 221 223 225 227 233 235 234 235 220 218 218 224
197 164 28 284 226 301 323 236 200 172 247 220 227 248 260 260 254 271 254 251 242 240 233 235 219 219 221 225 223 220 219 219 219 219 217 213 206 217 235 223 217 221 220 212
151 140 151 119 274 222 239 227 216 327 287 240 206 251 333 47 186 247 241 233 230 227 231 220 209 211 217 220 223 223 220 217 216 220 224 226 230 218 215 216 214 212 214 206
134 136 184 173 227 289 253 282 97 244 250 13 325 282 290 192 237 266 253 242 234 223 212 201 205 208 212 215 217 215 215 217 220 214 217 229 230 218 215 218 216 212 205 199
178 148 193 130 190 251 199 184 165 199 241 97 319 301 287 274 279 282 262 232 223 198 191 197 201 204 205 207 206 207 211 219 222 220 226 218 213 209 210 212 208 198 193 191
247 191 189 161 220 257 285 112 159 120 235 183 1 346 338 322 305 275 268 222 199 186 190 198 199 194 195 199 204 211 215 218 205 203 196 197 200 200 201 195 185 185 190 203
277 163 216 63 226 226 219 215 198 194 226 285 289 325 336 324 333 313 257 218 199 192 191 190 189 194 196 194 197 208 202 186 180 178 178 176 185 188 179 180 191 203 207 210
232 199 228 221 271 289 254 240 250 248 241 246 264 279 346 319 328 331 278 227 211 195 182 184 190 192 192 189 185 185 181 180 178 179 174 181 189 190 186 188 195 201 198 202
15 340 279 260 238 217 257 263 260 255 268 256 251 320 97 344 325 325 277 222 206 194 192 188 187 185 182 182 182 182 186 191 196 188 186 191 191 191 191 192 182 176 185 192